Time,TemperatureF,DewpointF,PressureIn,WindDirection,WindDirectionDegrees,WindSpeedMPH,WindSpeedGustMPH,Humidity,HourlyPrecipIn,Conditions,Clouds,dailyrainin,SoftwareType,DateUTC
2013-01-26 00:02:00,36.0,36.0,-100.00,SE,135,0.0,1.0,101,-99.99,,,-99.99,,2013-01-26 08:02:00,
2013-01-26 00:11:00,36.0,36.0,-100.00,East,90,1.0,2.0,101,-99.99,,,-99.99,,2013-01-26 08:11:00,
2013-01-26 00:21:00,36.0,36.0,-100.00,East,90,1.0,2.0,101,-99.99,,,-99.99,,2013-01-26 08:21:00,
2013-01-26 00:31:00,36.0,36.0,-100.00,East,90,0.0,2.0,101,-99.99,,,-99.99,,2013-01-26 08:31:00,
2013-01-26 00:41:00,36.0,36.0,-100.00,SW,225,2.0,3.0,101,-99.99,,,-99.99,,2013-01-26 08:41:00,
2013-01-26 00:53:00,36.0,36.0,-100.00,SW,225,0.0,1.0,101,-99.99,,,-99.99,,2013-01-26 08:53:00,
2013-01-26 01:01:00,36.0,36.0,-100.00,SW,225,0.0,1.0,101,-99.99,,,-99.99,,2013-01-26 09:01:00,
2013-01-26 01:11:00,36.0,36.0,-100.00,South,180,1.0,1.0,101,-99.99,,,-99.99,,2013-01-26 09:11:00,
2013-01-26 01:22:00,36.0,36.0,-100.00,South,180,1.0,1.0,101,-99.99,,,-99.99,,2013-01-26 09:22:00,
2013-01-26 01:31:00,36.0,36.0,-100.00,South,180,1.0,1.0,101,-99.99,,,-99.99,,2013-01-26 09:31:00,
2013-01-26 01:42:00,36.0,36.0,-100.00,NW,315,0.0,1.0,101,-99.99,,,-99.99,,2013-01-26 09:42:00,
2013-01-26 01:52:00,36.0,36.0,-100.00,NW,315,0.0,1.0,101,-99.99,,,-99.99,,2013-01-26 09:52:00,
2013-01-26 02:01:00,36.0,36.0,-100.00,SW,225,1.0,3.0,101,-99.99,,,-99.99,,2013-01-26 10:01:00,
2013-01-26 02:11:00,37.0,37.0,-100.00,North,0,1.0,3.0,101,-99.99,,,-99.99,,2013-01-26 10:11:00,
2013-01-26 02:21:00,37.0,37.0,-100.00,North,0,1.0,3.0,101,-99.99,,,-99.99,,2013-01-26 10:21:00,
2013-01-26 02:31:00,37.0,37.0,-100.00,West,270,1.0,1.0,101,-99.99,,,-99.99,,2013-01-26 10:31:00,
2013-01-26 02:42:00,37.0,37.0,-100.00,East,90,1.0,1.0,101,-99.99,,,-99.99,,2013-01-26 10:42:00,
2013-01-26 02:52:00,36.0,36.0,-100.00,South,180,1.0,2.0,101,-99.99,,,-99.99,,2013-01-26 10:52:00,
2013-01-26 03:01:00,36.0,36.0,-100.00,South,180,1.0,2.0,101,-99.99,,,-99.99,,2013-01-26 11:01:00,
2013-01-26 03:12:00,36.0,36.0,-100.00,North,0,0.0,2.0,101,-99.99,,,-99.99,,2013-01-26 11:12:00,
2013-01-26 03:22:00,36.0,36.0,-100.00,North,0,0.0,2.0,101,-99.99,,,-99.99,,2013-01-26 11:22:00,
2013-01-26 03:32:00,36.0,36.0,-100.00,North,0,2.0,2.0,101,-99.99,,,-99.99,,2013-01-26 11:32:00,
2013-01-26 03:42:00,36.0,36.0,-100.00,SE,135,1.0,3.0,101,-99.99,,,-99.99,,2013-01-26 11:42:00,
2013-01-26 03:52:00,36.0,36.0,-100.00,SE,135,1.0,3.0,101,-99.99,,,-99.99,,2013-01-26 11:52:00,
2013-01-26 04:01:00,36.0,36.0,-100.00,SW,225,0.0,3.0,101,-99.99,,,-99.99,,2013-01-26 12:01:00,
2013-01-26 04:12:00,36.0,36.0,-100.00,SW,225,0.0,2.0,101,-99.99,,,-99.99,,2013-01-26 12:12:00,
2013-01-26 04:22:00,36.0,36.0,-100.00,SW,225,0.0,2.0,101,-99.99,,,-99.99,,2013-01-26 12:22:00,
2013-01-26 04:33:00,36.0,36.0,-100.00,North,-999,0.0,0.0,101,-99.99,,,-99.99,,2013-01-26 12:33:00,
2013-01-26 04:42:00,36.0,36.0,-100.00,East,90,1.0,1.0,101,-99.99,,,-99.99,,2013-01-26 12:42:00,
2013-01-26 04:53:00,36.0,36.0,-100.00,East,90,1.0,1.0,101,-99.99,,,-99.99,,2013-01-26 12:53:00,
2013-01-26 05:02:00,36.0,36.0,-100.00,North,0,1.0,3.0,101,-99.99,,,-99.99,,2013-01-26 13:02:00,
2013-01-26 05:12:00,36.0,36.0,-100.00,North,0,2.0,3.0,101,-99.99,,,-99.99,,2013-01-26 13:12:00,
2013-01-26 05:22:00,36.0,36.0,-100.00,North,0,2.0,3.0,101,-99.99,,,-99.99,,2013-01-26 13:22:00,
2013-01-26 05:32:00,36.0,36.0,-100.00,South,180,0.0,2.0,101,-99.99,,,-99.99,,2013-01-26 13:32:00,
2013-01-26 05:42:00,36.0,36.0,-100.00,North,0,0.0,1.0,101,-99.99,,,-99.99,,2013-01-26 13:42:00,
2013-01-26 05:53:00,36.0,36.0,-100.00,North,0,0.0,1.0,101,-99.99,,,-99.99,,2013-01-26 13:53:00,
2013-01-26 06:02:00,36.0,36.0,-100.00,South,180,0.0,3.0,101,-99.99,,,-99.99,,2013-01-26 14:02:00,
2013-01-26 06:11:00,36.0,36.0,-100.00,SW,225,1.0,1.0,101,-99.99,,,-99.99,,2013-01-26 14:11:00,
2013-01-26 06:21:00,36.0,36.0,-100.00,SW,225,1.0,1.0,101,-99.99,,,-99.99,,2013-01-26 14:21:00,
2013-01-26 06:31:00,36.0,36.0,-100.00,East,90,0.0,1.0,101,-99.99,,,-99.99,,2013-01-26 14:31:00,
2013-01-26 06:42:00,36.0,36.0,-100.00,SW,225,1.0,3.0,101,-99.99,,,-99.99,,2013-01-26 14:42:00,
2013-01-26 06:53:00,36.0,36.0,-100.00,SW,225,1.0,3.0,101,-99.99,,,-99.99,,2013-01-26 14:53:00,
2013-01-26 07:02:00,36.0,36.0,-100.00,South,180,1.0,1.0,101,-99.99,,,-99.99,,2013-01-26 15:02:00,
2013-01-26 07:12:00,36.0,36.0,-100.00,North,0,1.0,1.0,101,-99.99,,,-99.99,,2013-01-26 15:12:00,
2013-01-26 07:22:00,36.0,36.0,-100.00,North,0,1.0,1.0,101,-99.99,,,-99.99,,2013-01-26 15:22:00,
2013-01-26 07:32:00,36.0,36.0,-100.00,NE,45,1.0,3.0,101,-99.99,,,-99.99,,2013-01-26 15:32:00,
2013-01-26 07:42:00,36.0,36.0,-100.00,South,180,0.0,3.0,101,-99.99,,,-99.99,,2013-01-26 15:42:00,
2013-01-26 07:52:00,36.0,36.0,-100.00,South,180,0.0,3.0,101,-99.99,,,-99.99,,2013-01-26 15:52:00,
2013-01-26 08:01:00,36.0,36.0,-100.00,NW,315,0.0,2.0,101,-99.99,,,-99.99,,2013-01-26 16:01:00,
2013-01-26 08:12:00,36.0,36.0,-100.00,SE,135,1.0,1.0,101,-99.99,,,-99.99,,2013-01-26 16:12:00,
2013-01-26 08:21:00,36.0,36.0,-100.00,SE,135,1.0,1.0,101,-99.99,,,-99.99,,2013-01-26 16:21:00,
2013-01-26 08:32:00,36.0,36.0,-100.00,South,180,0.0,3.0,101,-99.99,,,-99.99,,2013-01-26 16:32:00,
2013-01-26 08:42:00,36.0,36.0,-100.00,SW,225,1.0,3.0,101,-99.99,,,-99.99,,2013-01-26 16:42:00,
2013-01-26 08:53:00,36.0,36.0,-100.00,SW,225,1.0,3.0,101,-99.99,,,-99.99,,2013-01-26 16:53:00,
2013-01-26 09:02:00,36.0,36.0,-100.00,West,270,0.0,2.0,101,-99.99,,,-99.99,,2013-01-26 17:02:00,
2013-01-26 09:12:00,37.0,37.0,-100.00,NW,315,1.0,3.0,101,-99.99,,,-99.99,,2013-01-26 17:12:00,
2013-01-26 09:22:00,37.0,37.0,-100.00,NW,315,1.0,3.0,101,-99.99,,,-99.99,,2013-01-26 17:22:00,
2013-01-26 09:32:00,37.0,37.0,-100.00,South,180,0.0,2.0,101,-99.99,,,-99.99,,2013-01-26 17:32:00,
2013-01-26 09:42:00,37.0,37.0,-100.00,NE,45,0.0,1.0,101,-99.99,,,-99.99,,2013-01-26 17:42:00,
2013-01-26 09:53:00,37.0,37.0,-100.00,NE,45,0.0,1.0,101,-99.99,,,-99.99,,2013-01-26 17:53:00,
2013-01-26 10:02:00,37.0,37.0,-100.00,South,180,0.0,2.0,101,-99.99,,,-99.99,,2013-01-26 18:02:00,
2013-01-26 10:11:00,37.0,37.0,-100.00,NW,315,1.0,1.0,101,-99.99,,,-99.99,,2013-01-26 18:11:00,
2013-01-26 10:22:00,37.0,37.0,-100.00,NW,315,1.0,1.0,101,-99.99,,,-99.99,,2013-01-26 18:22:00,
2013-01-26 10:32:00,38.0,38.0,-100.00,NW,315,1.0,2.0,101,-99.99,,,-99.99,,2013-01-26 18:32:00,
2013-01-26 10:41:00,38.0,38.0,-100.00,North,0,0.0,1.0,101,-99.99,,,-99.99,,2013-01-26 18:41:00,
2013-01-26 10:52:00,38.0,38.0,-100.00,North,0,0.0,1.0,101,-99.99,,,-99.99,,2013-01-26 18:52:00,
2013-01-26 11:03:00,38.0,38.0,-100.00,North,0,1.0,2.0,101,-99.99,,,-99.99,,2013-01-26 19:03:00,
2013-01-26 11:11:00,38.0,38.0,-100.00,NE,45,1.0,3.0,101,-99.99,,,-99.99,,2013-01-26 19:11:00,
2013-01-26 11:22:00,38.0,38.0,-100.00,NE,45,1.0,3.0,101,-99.99,,,-99.99,,2013-01-26 19:22:00,
2013-01-26 11:32:00,38.0,38.0,-100.00,East,90,2.0,3.0,101,-99.99,,,-99.99,,2013-01-26 19:32:00,
2013-01-26 11:42:00,38.0,38.0,-100.00,East,90,1.0,3.0,101,-99.99,,,-99.99,,2013-01-26 19:42:00,
2013-01-26 11:52:00,38.0,38.0,-100.00,East,90,1.0,3.0,101,-99.99,,,-99.99,,2013-01-26 19:52:00,
2013-01-26 12:02:00,39.0,39.0,-100.00,North,0,0.0,5.0,101,-99.99,,,-99.99,,2013-01-26 20:02:00,
2013-01-26 12:11:00,39.0,39.0,-100.00,NW,315,0.0,1.0,101,-99.99,,,-99.99,,2013-01-26 20:11:00,
2013-01-26 12:21:00,39.0,39.0,-100.00,NW,315,0.0,1.0,101,-99.99,,,-99.99,,2013-01-26 20:21:00,
2013-01-26 12:32:00,39.0,39.0,-100.00,NW,315,0.0,2.0,101,-99.99,,,-99.99,,2013-01-26 20:32:00,
2013-01-26 12:41:00,40.0,40.0,-100.00,West,270,3.0,6.0,101,-99.99,,,-99.99,,2013-01-26 20:41:00,
2013-01-26 12:52:00,40.0,40.0,-100.00,West,270,3.0,6.0,101,-99.99,,,-99.99,,2013-01-26 20:52:00,
2013-01-26 13:02:00,40.0,40.0,-100.00,West,270,3.0,6.0,101,-99.99,,,-99.99,,2013-01-26 21:02:00,
2013-01-26 13:12:00,40.0,40.0,-100.00,South,180,3.0,9.0,101,-99.99,,,-99.99,,2013-01-26 21:12:00,
2013-01-26 13:22:00,40.0,40.0,-100.00,South,180,3.0,9.0,101,-99.99,,,-99.99,,2013-01-26 21:22:00,
2013-01-26 13:32:00,40.0,40.0,-100.00,SW,225,3.0,6.0,101,-99.99,,,-99.99,,2013-01-26 21:32:00,
2013-01-26 13:42:00,40.0,40.0,-100.00,South,180,3.0,6.0,101,-99.99,,,-99.99,,2013-01-26 21:42:00,
2013-01-26 13:52:00,40.0,40.0,-100.00,South,180,3.0,6.0,101,-99.99,,,-99.99,,2013-01-26 21:52:00,
2013-01-26 14:01:00,41.0,41.0,-100.00,SW,225,3.0,4.0,101,-99.99,,,-99.99,,2013-01-26 22:01:00,
2013-01-26 14:11:00,41.0,41.0,-100.00,SW,225,2.0,4.0,101,-99.99,,,-99.99,,2013-01-26 22:11:00,
2013-01-26 14:21:00,41.0,41.0,-100.00,SW,225,2.0,4.0,101,-99.99,,,-99.99,,2013-01-26 22:21:00,
2013-01-26 14:31:00,41.0,41.0,-100.00,SW,225,3.0,4.0,101,-99.99,,,-99.99,,2013-01-26 22:31:00,
2013-01-26 14:42:00,41.0,41.0,-100.00,West,270,1.0,6.0,101,-99.99,,,-99.99,,2013-01-26 22:42:00,
2013-01-26 14:52:00,41.0,41.0,-100.00,West,270,1.0,6.0,101,-99.99,,,-99.99,,2013-01-26 22:52:00,
2013-01-26 15:01:00,41.0,41.0,-100.00,SW,225,2.0,4.0,101,-99.99,,,-99.99,,2013-01-26 23:01:00,
2013-01-26 15:11:00,42.0,41.0,-100.00,SW,225,1.0,4.0,99,-99.99,,,-99.99,,2013-01-26 23:11:00,
2013-01-26 15:21:00,42.0,41.0,-100.00,SW,225,1.0,4.0,99,-99.99,,,-99.99,,2013-01-26 23:21:00,
2013-01-26 15:32:00,41.0,41.0,-100.00,SW,225,3.0,5.0,99,-99.99,,,-99.99,,2013-01-26 23:32:00,
2013-01-26 15:41:00,42.0,41.0,-100.00,SW,225,2.0,6.0,98,-99.99,,,-99.99,,2013-01-26 23:41:00,
2013-01-26 15:52:00,42.0,41.0,-100.00,SW,225,2.0,6.0,98,-99.99,,,-99.99,,2013-01-26 23:52:00,
2013-01-26 16:01:00,42.0,41.0,-100.00,SE,135,1.0,3.0,97,-99.99,,,-99.99,,2013-01-27 00:01:00,
2013-01-26 16:11:00,41.0,41.0,-100.00,South,180,2.0,4.0,97,-99.99,,,-99.99,,2013-01-27 00:11:00,
2013-01-26 16:21:00,41.0,41.0,-100.00,South,180,2.0,4.0,97,-99.99,,,-99.99,,2013-01-27 00:21:00,
2013-01-26 16:31:00,41.0,40.0,-100.00,South,180,1.0,4.0,97,-99.99,,,-99.99,,2013-01-27 00:31:00,
2013-01-26 16:41:00,41.0,40.0,-100.00,East,90,1.0,4.0,97,-99.99,,,-99.99,,2013-01-27 00:41:00,
2013-01-26 16:52:00,41.0,40.0,-100.00,East,90,1.0,4.0,97,-99.99,,,-99.99,,2013-01-27 00:52:00,
2013-01-26 17:01:00,40.0,39.0,-100.00,SE,135,1.0,3.0,98,-99.99,,,-99.99,,2013-01-27 01:01:00,
2013-01-26 17:11:00,40.0,40.0,-100.00,SW,225,0.0,3.0,98,-99.99,,,-99.99,,2013-01-27 01:11:00,
2013-01-26 17:22:00,40.0,40.0,-100.00,SW,225,0.0,3.0,98,-99.99,,,-99.99,,2013-01-27 01:22:00,
2013-01-26 17:32:00,40.0,39.0,-100.00,SE,135,1.0,3.0,98,-99.99,,,-99.99,,2013-01-27 01:32:00,
2013-01-26 17:41:00,39.0,38.0,-100.00,East,90,1.0,3.0,98,-99.99,,,-99.99,,2013-01-27 01:41:00,
2013-01-26 17:52:00,39.0,38.0,-100.00,East,90,1.0,3.0,98,-99.99,,,-99.99,,2013-01-27 01:52:00,
2013-01-26 18:01:00,39.0,39.0,-100.00,East,90,0.0,4.0,99,-99.99,,,-99.99,,2013-01-27 02:01:00,
2013-01-26 18:11:00,39.0,38.0,-100.00,NE,45,1.0,6.0,99,-99.99,,,-99.99,,2013-01-27 02:11:00,
2013-01-26 18:21:00,39.0,38.0,-100.00,NE,45,1.0,6.0,99,-99.99,,,-99.99,,2013-01-27 02:21:00,
2013-01-26 18:31:00,38.0,38.0,-100.00,South,180,1.0,3.0,99,-99.99,,,-99.99,,2013-01-27 02:31:00,
2013-01-26 18:41:00,38.0,38.0,-100.00,SE,135,1.0,2.0,101,-99.99,,,-99.99,,2013-01-27 02:41:00,
2013-01-26 18:52:00,38.0,38.0,-100.00,SE,135,1.0,2.0,101,-99.99,,,-99.99,,2013-01-27 02:52:00,
2013-01-26 19:01:00,38.0,38.0,-100.00,SE,135,1.0,3.0,101,-99.99,,,-99.99,,2013-01-27 03:01:00,
2013-01-26 19:11:00,39.0,39.0,-100.00,NW,315,1.0,3.0,101,-99.99,,,-99.99,,2013-01-27 03:11:00,
2013-01-26 19:21:00,39.0,39.0,-100.00,NW,315,1.0,3.0,101,-99.99,,,-99.99,,2013-01-27 03:21:00,
2013-01-26 19:31:00,38.0,38.0,-100.00,East,90,2.0,4.0,101,-99.99,,,-99.99,,2013-01-27 03:31:00,
2013-01-26 19:41:00,38.0,38.0,-100.00,SE,135,1.0,2.0,101,-99.99,,,-99.99,,2013-01-27 03:41:00,
2013-01-26 19:52:00,38.0,38.0,-100.00,SE,135,1.0,2.0,101,-99.99,,,-99.99,,2013-01-27 03:52:00,
2013-01-26 20:01:00,38.0,38.0,-100.00,NW,315,0.0,1.0,101,-99.99,,,-99.99,,2013-01-27 04:01:00,
2013-01-26 20:11:00,38.0,38.0,-100.00,East,90,1.0,1.0,101,-99.99,,,-99.99,,2013-01-27 04:11:00,
2013-01-26 20:21:00,38.0,38.0,-100.00,East,90,1.0,1.0,101,-99.99,,,-99.99,,2013-01-27 04:21:00,
2013-01-26 20:31:00,38.0,38.0,-100.00,SE,135,1.0,2.0,101,-99.99,,,-99.99,,2013-01-27 04:31:00,
2013-01-26 20:41:00,37.0,37.0,-100.00,SW,225,1.0,3.0,101,-99.99,,,-99.99,,2013-01-27 04:41:00,
2013-01-26 20:52:00,37.0,37.0,-100.00,SW,225,1.0,3.0,101,-99.99,,,-99.99,,2013-01-27 04:52:00,
2013-01-26 21:03:00,38.0,38.0,-100.00,North,0,1.0,1.0,101,-99.99,,,-99.99,,2013-01-27 05:03:00,
2013-01-26 21:11:00,38.0,38.0,-100.00,SE,135,1.0,3.0,101,-99.99,,,-99.99,,2013-01-27 05:11:00,
2013-01-26 21:22:00,38.0,38.0,-100.00,SE,135,1.0,3.0,101,-99.99,,,-99.99,,2013-01-27 05:22:00,
2013-01-26 21:31:00,39.0,39.0,-100.00,SW,225,3.0,5.0,101,-99.99,,,-99.99,,2013-01-27 05:31:00,
2013-01-26 21:41:00,39.0,39.0,-100.00,South,180,1.0,2.0,101,-99.99,,,-99.99,,2013-01-27 05:41:00,
2013-01-26 21:52:00,39.0,39.0,-100.00,South,180,1.0,2.0,101,-99.99,,,-99.99,,2013-01-27 05:52:00,
2013-01-26 22:01:00,39.0,39.0,-100.00,SW,225,3.0,7.0,101,-99.99,,,-99.99,,2013-01-27 06:01:00,
2013-01-26 22:11:00,39.0,39.0,-100.00,NW,315,1.0,6.0,101,-99.99,,,-99.99,,2013-01-27 06:11:00,
2013-01-26 22:21:00,39.0,39.0,-100.00,NW,315,1.0,6.0,101,-99.99,,,-99.99,,2013-01-27 06:21:00,
2013-01-26 22:31:00,38.0,38.0,-100.00,East,90,0.0,4.0,99,-99.99,,,-99.99,,2013-01-27 06:31:00,
2013-01-26 22:41:00,38.0,38.0,-100.00,SW,225,3.0,4.0,99,-99.99,,,-99.99,,2013-01-27 06:41:00,
2013-01-26 22:52:00,38.0,38.0,-100.00,SW,225,3.0,4.0,99,-99.99,,,-99.99,,2013-01-27 06:52:00,
2013-01-26 23:01:00,39.0,38.0,-100.00,South,180,2.0,4.0,99,-99.99,,,-99.99,,2013-01-27 07:01:00,
2013-01-26 23:13:00,39.0,38.0,-100.00,SW,225,4.0,6.0,98,-99.99,,,-99.99,,2013-01-27 07:13:00,
2013-01-26 23:21:00,39.0,38.0,-100.00,SW,225,4.0,6.0,98,-99.99,,,-99.99,,2013-01-27 07:21:00,
2013-01-26 23:31:00,39.0,38.0,-100.00,SW,225,3.0,6.0,98,-99.99,,,-99.99,,2013-01-27 07:31:00,
2013-01-26 23:41:00,39.0,38.0,-100.00,SW,225,3.0,6.0,98,-99.99,,,-99.99,,2013-01-27 07:41:00,
2013-01-26 23:52:00,39.0,38.0,-100.00,SW,225,3.0,6.0,98,-99.99,,,-99.99,,2013-01-27 07:52:00,